Time+07,TemperatureF,Dew PointF,Humidity,Sea Level PressureIn,VisibilityMPH,Wind Direction,Wind SpeedMPH,Gust SpeedMPH,PrecipitationIn,Events,Conditions,WindDirDegrees,DateUTC
12:00 AM,80.6,73.4,79,29.86,5.6,South,5.8,-,N/A,,Scattered Clouds,170,2012-11-29 17:00:00
12:30 AM,80.6,73.4,79,29.86,5.6,South,5.8,-,N/A,,Scattered Clouds,170,2012-11-29 17:30:00
6:00 AM,77.0,71.6,83,29.83,5.6,South,3.5,-,N/A,,Scattered Clouds,190,2012-11-29 23:00:00
7:00 AM,78.8,73.4,83,29.86,6.2,South,3.5,-,N/A,,Scattered Clouds,180,2012-11-30 00:00:00
7:30 AM,80.6,71.6,74,29.86,6.2,SSE,5.8,-,N/A,,Scattered Clouds,150,2012-11-30 00:30:00
8:00 AM,82.4,71.6,70,29.89,6.2,South,4.6,-,N/A,,Scattered Clouds,180,2012-11-30 01:00:00
8:30 AM,82.4,71.6,70,29.89,6.2,ESE,5.8,-,N/A,,Scattered Clouds,120,2012-11-30 01:30:00
9:00 AM,84.2,69.8,62,29.89,6.2,SSE,4.6,-,N/A,,Scattered Clouds,150,2012-11-30 02:00:00
9:30 AM,86.0,71.6,62,29.89,6.2,Variable,3.5,-,N/A,,Scattered Clouds,0,2012-11-30 02:30:00
10:00 AM,86.0,69.8,58,29.89,6.2,ESE,3.5,-,N/A,,Scattered Clouds,120,2012-11-30 03:00:00
10:30 AM,86.0,69.8,58,29.89,6.2,SSE,3.5,-,N/A,,Scattered Clouds,150,2012-11-30 03:30:00
11:00 AM,87.8,69.8,55,29.86,6.2,North,3.5,-,N/A,,Scattered Clouds,360,2012-11-30 04:00:00
11:30 AM,86.0,71.6,62,29.86,6.2,NNW,3.5,-,N/A,,Partly Cloudy,330,2012-11-30 04:30:00
12:00 PM,86.0,71.6,62,29.86,6.2,NNW,5.8,-,N/A,,Partly Cloudy,330,2012-11-30 05:00:00
12:30 PM,86.0,69.8,58,29.83,6.2,SSW,2.3,-,N/A,,Partly Cloudy,210,2012-11-30 05:30:00
1:00 PM,89.6,71.6,55,29.83,6.2,Variable,1.2,-,N/A,,Partly Cloudy,0,2012-11-30 06:00:00
1:30 PM,87.8,69.8,55,29.80,6.2,NE,4.6,-,N/A,,Scattered Clouds,50,2012-11-30 06:30:00
2:00 PM,87.8,69.8,55,29.77,6.2,ENE,4.6,-,N/A,,Scattered Clouds,60,2012-11-30 07:00:00
2:30 PM,89.6,68.0,49,29.77,6.2,North,5.8,-,N/A,,Scattered Clouds,10,2012-11-30 07:30:00
3:00 PM,-9999,-9999,N/A,29.77,6.2,ENE,6.9,-,N/A,,Scattered Clouds,60,2012-11-30 08:00:00
3:30 PM,-9999,-9999,N/A,29.77,6.2,East,6.9,-,N/A,,Partly Cloudy,90,2012-11-30 08:30:00
4:30 PM,89.6,71.6,55,29.74,6.2,East,4.6,-,N/A,,Partly Cloudy,90,2012-11-30 09:30:00
5:00 PM,89.6,68.0,49,29.74,6.2,SSE,4.6,-,N/A,,Partly Cloudy,150,2012-11-30 10:00:00
5:30 PM,87.8,69.8,55,29.74,6.2,ENE,2.3,-,N/A,,Partly Cloudy,60,2012-11-30 10:30:00
6:00 PM,86.0,69.8,58,29.77,6.2,NE,3.5,-,N/A,,Partly Cloudy,40,2012-11-30 11:00:00
6:30 PM,86.0,71.6,62,29.77,5.6,NE,3.5,-,N/A,,Partly Cloudy,50,2012-11-30 11:30:00
7:00 PM,86.0,73.4,66,29.77,5.6,East,2.3,-,N/A,,Partly Cloudy,80,2012-11-30 12:00:00
7:30 PM,86.0,71.6,62,29.80,5.6,South,4.6,-,N/A,,Scattered Clouds,180,2012-11-30 12:30:00
8:00 PM,84.2,75.2,74,29.80,5.6,South,6.9,-,N/A,,Scattered Clouds,190,2012-11-30 13:00:00
9:00 PM,82.4,75.2,79,29.83,5.6,SSW,3.5,-,N/A,,Scattered Clouds,210,2012-11-30 14:00:00
9:30 PM,80.6,75.2,84,29.83,5.6,SSW,3.5,-,N/A,,Scattered Clouds,200,2012-11-30 14:30:00
10:00 PM,80.6,75.2,84,29.83,5.6,South,5.8,-,N/A,,Scattered Clouds,180,2012-11-30 15:00:00
10:30 PM,80.6,75.2,84,29.83,5.6,South,5.8,-,N/A,,Scattered Clouds,180,2012-11-30 15:30:00
11:00 PM,80.6,73.4,79,29.83,5.6,South,4.6,-,N/A,,Partly Cloudy,180,2012-11-30 16:00:00
11:30 PM,80.6,73.4,79,29.83,5.6,SSW,5.8,-,N/A,,Partly Cloudy,200,2012-11-30 16:30:00